Weather History for Cheraw, SC

Change the Weather History Date:

Saturday, April 27, 2013

  Actual Average (KFLO) Record (KFLO)
Temperature  
Mean Temperature 62 °F 66 °F  
Max Temperature 73 °F 79 °F 96 °F (1981)
Min Temperature 50 °F 54 °F 38 °F (1972)
Degree Days  
Heating Degree Days 4 2  
Month to date heating degree days 117  
Since 1 July heating degree days 2493  
Cooling Degree Days 0 3  
Month to date cooling degree days 59  
Year to date cooling degree days 83  
Growing Degree Days 12 (Base 50)    
Moisture  
Dew Point 50 °F    
Average Humidity 78    
Maximum Humidity 100    
Minimum Humidity 31    
Precipitation  
Precipitation 0.10 in 0.09 in 1.87 in (1950)
Month to date precipitation 2.37  
Year to date precipitation 11.85  
Sea Level Pressure  
Sea Level Pressure 30.33 in    
Wind  
Wind Speed - (North)    
Max Wind Speed -    
Max Gust Speed -    
Visibility 8 miles    
Events Rain    
T = Trace of Precipitation, MM = Missing Value Source: NWS Daily Summary

Daily Weather History Graph

Daily Weather History Graph

Search for Another Location

Airport:

Trip Planner

Search our weather history database for the weather conditions in past years. The results will help you decide how hot, cold, wet, or windy it might be!

Date:

Astronomy

Apr. 27, 2013 Rise Set
Actual Time 6:33 AM EDT 8:01 PM EDT
Civil Twilight 6:06 AM EDT 8:28 PM EDT
Nautical Twilight 5:34 AM EDT 9:00 PM EDT
Astronomical Twilight 5:01 AM EDT 9:34 PM EDT
Moon 10:25 PM EDT (4/27) 7:54 AM EDT (4/27)
Length of Visible Light 14h 21m
Length of Day
13h 28m
Waning Gibbous, 95% of the Moon is Illuminated
Apr 27
Waning Gibbous
May 2
Last Quarter
May 9
New
May 18
First Quarter
May 25
Full

Hourly Weather History & Observations

Time (EDT) Temp. Dew Point Humidity Pressure Visibility Wind Dir Wind Speed Gust Speed Precip Events Conditions
12:15 AM 55.4 °F 44.6 °F 67% 30.34 in 10.0 mi North - - N/A   Clear
12:35 AM 51.8 °F 48.2 °F 88% 30.35 in 10.0 mi North - - N/A   Clear
12:55 AM 53.6 °F 46.4 °F 77% 30.36 in 10.0 mi North - - N/A   Clear
1:15 AM 53.6 °F 48.2 °F 82% 30.36 in 9.0 mi North - - N/A   Clear
1:35 AM 53.6 °F 48.2 °F 82% 30.35 in 10.0 mi North - - N/A   Clear
1:55 AM 51.8 °F 48.2 °F 88% 30.36 in 8.0 mi North - - N/A   Clear
2:15 AM 53.6 °F 46.4 °F 77% 30.36 in 7.0 mi North - - N/A   Clear
2:35 AM 53.6 °F 46.4 °F 77% 30.36 in 10.0 mi North - - N/A   Clear
2:55 AM 51.8 °F 48.2 °F 88% 30.36 in 10.0 mi North - - N/A   Clear
3:15 AM 51.8 °F 48.2 °F 88% 30.35 in 10.0 mi North - - N/A   Partly Cloudy
3:35 AM 51.8 °F 48.2 °F 88% 30.34 in 10.0 mi North - - N/A   Partly Cloudy
3:55 AM 51.8 °F 48.2 °F 88% 30.35 in 10.0 mi North - - N/A   Partly Cloudy
4:15 AM 51.8 °F 48.2 °F 88% 30.36 in 10.0 mi North - - N/A   Mostly Cloudy
4:35 AM 51.8 °F 48.2 °F 88% 30.34 in 10.0 mi North - - N/A   Overcast
4:55 AM 51.8 °F 48.2 °F 88% 30.34 in 10.0 mi North - - N/A   Mostly Cloudy
5:15 AM 50.0 °F 48.2 °F 94% 30.34 in 10.0 mi North - - N/A   Scattered Clouds
5:35 AM 50.0 °F 48.2 °F 94% 30.34 in 10.0 mi North - - N/A   Clear
5:55 AM 51.8 °F 48.2 °F 88% 30.34 in 10.0 mi North - - N/A   Clear
6:15 AM 51.8 °F 48.2 °F 88% 30.33 in 10.0 mi North - - N/A   Clear
7:35 AM 51.8 °F 48.2 °F 88% 30.37 in 10.0 mi North - - N/A   Overcast
7:55 AM 51.8 °F 48.2 °F 88% 30.37 in 10.0 mi North - - N/A   Overcast
8:15 AM 51.8 °F 48.2 °F 88% 30.38 in 10.0 mi North - - N/A   Overcast
8:35 AM 53.6 °F 48.2 °F 82% 30.38 in 10.0 mi North - - N/A   Mostly Cloudy
8:55 AM 55.4 °F 48.2 °F 77% 30.38 in 10.0 mi North - - N/A   Mostly Cloudy
9:15 AM 55.4 °F 50.0 °F 82% 30.38 in 10.0 mi North - - N/A   Mostly Cloudy
9:35 AM 57.2 °F 50.0 °F 77% 30.37 in 10.0 mi North - - N/A   Scattered Clouds
9:55 AM 57.2 °F 50.0 °F 77% 30.36 in 10.0 mi North - - N/A   Clear
10:15 AM 59.0 °F 50.0 °F 72% 30.36 in 10.0 mi North - - N/A   Clear
10:35 AM 59.0 °F 51.8 °F 77% 30.37 in 9.0 mi North - - N/A   Clear
10:55 AM 59.0 °F 50.0 °F 72% 30.36 in 10.0 mi North - - N/A   Clear
11:15 AM 62.6 °F 51.8 °F 68% 30.37 in 10.0 mi North - - N/A   Partly Cloudy
11:35 AM 64.4 °F 53.6 °F 68% 30.36 in 10.0 mi North - - N/A   Partly Cloudy
11:55 AM 64.4 °F 51.8 °F 64% 30.35 in 10.0 mi North - - N/A   Clear
12:15 PM 66.2 °F 50.0 °F 56% 30.34 in 10.0 mi North - - N/A   Partly Cloudy
12:35 PM 66.2 °F 46.4 °F 49% 30.33 in 10.0 mi North - - N/A   Clear
12:55 PM 68.0 °F 44.6 °F 43% 30.33 in 10.0 mi North - - N/A   Clear
1:15 PM 69.8 °F 44.6 °F 40% 30.32 in 10.0 mi North - - N/A   Clear
1:35 PM 71.6 °F 44.6 °F 38% 30.32 in 10.0 mi North - - N/A   Clear
1:55 PM 73.4 °F 41.0 °F 31% 30.31 in 10.0 mi North - - N/A   Clear
2:15 PM 71.6 °F 41.0 °F 33% 30.31 in 10.0 mi North - - N/A   Clear
2:35 PM 71.6 °F 41.0 °F 33% 30.31 in 10.0 mi North - - N/A   Scattered Clouds
2:55 PM 71.6 °F 44.6 °F 38% 30.31 in 10.0 mi North - - N/A   Scattered Clouds
3:15 PM 71.6 °F 42.8 °F 35% 30.30 in 10.0 mi North - - N/A   Mostly Cloudy
3:35 PM 71.6 °F 42.8 °F 35% 30.31 in 10.0 mi North - - N/A   Mostly Cloudy
3:55 PM 68.0 °F 42.8 °F 40% 30.31 in 10.0 mi North - - N/A   Mostly Cloudy
4:15 PM 69.8 °F 44.6 °F 40% 30.30 in 10.0 mi North - - N/A   Partly Cloudy
4:35 PM 66.2 °F 48.2 °F 52% 30.29 in 9.0 mi North - - N/A Rain Light Rain
4:55 PM 64.4 °F 53.6 °F 68% 30.29 in 8.0 mi North - - N/A Rain Light Rain
5:15 PM 59.0 °F 55.4 °F 88% 30.32 in 5.0 mi North - - N/A Rain Light Rain
5:35 PM 57.2 °F 55.4 °F 94% 30.32 in 4.0 mi North - - 0.01 in Rain Rain
5:55 PM 57.2 °F 55.4 °F 94% 30.33 in 3.0 mi North - - 0.04 in Rain Rain
6:15 PM 57.2 °F 57.2 °F 100% 30.33 in 4.0 mi North - - 0.03 in Rain Rain
6:35 PM 57.2 °F 57.2 °F 100% 30.32 in 5.0 mi North - - 0.04 in Rain Light Rain
6:55 PM 57.2 °F 57.2 °F 100% 30.31 in 6.0 mi North - - 0.05 in Rain Light Rain
7:15 PM 57.2 °F 57.2 °F 100% 30.30 in 5.0 mi North - - N/A Rain Light Rain
7:35 PM 57.2 °F 57.2 °F 100% 30.27 in 8.0 mi North - - N/A   Partly Cloudy
7:55 PM 57.2 °F 57.2 °F 100% 30.29 in 6.0 mi North - - N/A   Scattered Clouds
8:15 PM 57.2 °F 57.2 °F 100% 30.29 in 5.0 mi North - - N/A   Mostly Cloudy
8:35 PM 55.4 °F 55.4 °F 100% 30.28 in 5.0 mi North - - N/A   Scattered Clouds
8:55 PM 55.4 °F 55.4 °F 100% 30.28 in 5.0 mi North - - N/A Rain Light Rain
9:15 PM 55.4 °F 55.4 °F 100% 30.29 in 5.0 mi North - - N/A   Mostly Cloudy
9:35 PM 55.4 °F 55.4 °F 100% 30.29 in 4.0 mi North - - 0.01 in   Overcast
9:55 PM 57.2 °F 57.2 °F 100% 30.29 in 4.0 mi North - - 0.01 in Rain Light Rain
10:15 PM 55.4 °F 55.4 °F 100% 30.29 in 4.0 mi North - - N/A   Partly Cloudy
10:55 PM 55.4 °F 55.4 °F 100% 30.29 in 2.5 mi North - - N/A   Partly Cloudy
11:15 PM 55.4 °F 55.4 °F 100% 30.28 in 2.0 mi North - - N/A   Overcast
11:35 PM 55.4 °F 55.4 °F 100% 30.28 in 3.0 mi North - - N/A   Overcast